Showing default

COSMOS 1875, 18334

Orbit data source: Space-Track

COSMOS 1875, 18334 is a payload satellite owned by UNKS (CIS) in LEO that was launched on Mon, 07 Sep 1987 UTC via a TSIKLON-3 launch vehicle from the Plesetsk Missile And Space Complex (PKMTR). Payload-class satellites include a variety of spacecraft equipped with specific instruments for various scientific and technological missions. These include communications satellites like Starlink; space stations such as the ISS; scientific satellites like the Hubble; Earth observation satellites from companies like Planet Labs, Umbra, and HawkEye 360; GPS; miniature CubeSats for education and research; and military/defense satellites.

Loading next visibility...
Identifier
18334, 1987-074A
Orbit
LEO
Country
Flag of CISCIS
Related business
Manufacturer
NPO PM
Mission
Defense Communications
Bus & Motor
STRELA-3, Unknown motor
Mass
225 kg wet, 225 kg dry
Launch date (UTC)
1987-09-07 (38 years ago)
Launch vehicle
TSIKLON-3
Launch site
Plesetsk Missile And Space Complex (PKMTR)
Object type
Payload
Rocket body
Debris
Shape & HBR
Cyl, 0.8 m
Radar Cross Section
1.257 m², Large (>1 m²)

Expand to show TLE details & history
Last TLE update: 8 hours ago

TLE from 8 hours ago
0 COSMOS 1875
1 18334U 87074A   26061.80200131  .00000031  00000-0  10704-3 0  9994
2 18334  82.5726 326.4976 0013353 357.1185  71.8431 12.66340309778609
Epoch: 2026-03-02T19:14Z
TLE epoch observation values (Epoch: 2026-03-02T19:14:52.913Z)
Latitude
67.95705°
Longitude
-104.1275°
Altitude
1,405.396 km
Speed
7.165 km/s
True Right ascension
23h 00m 43s
True Declination
67° 50' 50"
Sunlit
Object was in daylight at epoch
Visualization orbit readout
Latitude
Unknown
Longitude
Unknown
Altitude
Unknown
Speed
Unknown
Apparent Right ascension
Unknown
Apparent Declination
Unknown
Sunlit
N/A
Visualization observer readout
Local Sidereal Time
07:10:43
Azimuth
Unknown
Elevation
Unknown
Doppler factor
Unknown
Orbital elements
Apogee altitude
1,404.577 km
Perigee altitude
1,383.82 km
Semi-major axis
7,772.336 km
Eccentricity
0.00134
Inclination
82.5726°
RAAN
326.4976°
Arg. of periapsis
357.1185°
True anomaly
71.98857°
Mean anomaly
71.8431°
Eccentric anomaly
71.91583°
Mean motion
3.16749 °/min
Orbital period
113.65 mins
BSTAR
0.00010704
Loading maneuver chart data...
Computing Atmospheric mass density...
Loading historical data...
Loading historical data...
Loading historical data...
Loading historical data...
Loading historical data...
Loading historical data...
Loading historical data...

Documentation

Showing up to 5 results
|